| time (UTC) | temp F | wind direction | speed MPH | gust MPH | rain 1hr in | rain 24hr in | rain mn in | humidity % | barometer mb |
| 20260904193033 | 71 | 74 | 9.0 | 12.0 | 0.00 | 0.34 | 0.01 | 87 | 1012.2 |
| 20260904191533 | 72 | 63 | 8.0 | 12.0 | 0.00 | 0.34 | 0.01 | 87 | 1012.2 |
| 20260904190032 | 72 | 57 | 9.0 | 12.0 | 0.00 | 0.34 | 0.01 | 86 | 1012.4 |
| 20260904184534 | 72 | 59 | 8.0 | 12.0 | 0.00 | 0.36 | 0.01 | 86 | 1012.5 |
| 20260904183030 | 73 | 86 | 4.0 | 8.0 | 0.00 | 0.36 | 0.01 | 84 | 1012.4 |
| 20260904181543 | 74 | 82 | 2.0 | 7.0 | 0.00 | 0.36 | 0.01 | 82 | 1012.2 |
| 20260904180026 | 74 | 42 | 0.0 | 7.0 | 0.00 | 0.36 | 0.01 | 82 | 1012.5 |
| 20260904174525 | 74 | 121 | 2.0 | 5.0 | 0.00 | 0.36 | 0.01 | 83 | 1012.5 |
| 20260904173023 | 74 | 106 | 3.0 | 6.0 | 0.00 | 0.36 | 0.01 | 82 | 1012.8 |
| 20260904171521 | 73 | 163 | 4.0 | 7.0 | 0.00 | 0.36 | 0.01 | 83 | 1013.0 |
| 20260904170020 | 73 | 167 | 4.0 | 6.0 | 0.00 | 0.36 | 0.01 | 83 | 1013.0 |
| 20260904164519 | 73 | 164 | 3.0 | 8.0 | 0.00 | 0.36 | 0.01 | 83 | 1013.3 |
| 20260904163016 | 72 | 144 | 3.0 | 6.0 | 0.00 | 0.36 | 0.01 | 85 | 1013.5 |
| 20260904161513 | 71 | 118 | 4.0 | 7.0 | 0.00 | 0.36 | 0.01 | 87 | 1013.6 |
| 20260904160014 | 71 | 192 | 3.0 | 6.0 | 0.00 | 0.36 | 0.01 | 87 | 1013.8 |
| 20260904154508 | 70 | 155 | 2.0 | 5.0 | 0.00 | 0.36 | 0.01 | 89 | 1014.0 |
| 20260904153013 | 69 | 156 | 0.0 | 4.0 | 0.00 | 0.36 | 0.01 | 90 | 1014.5 |
| 20260904151503 | 69 | 158 | 2.0 | 4.0 | 0.00 | 0.36 | 0.01 | 91 | 1014.5 |
| 20260904150003 | 69 | 170 | 1.0 | 7.0 | 0.00 | 0.36 | 0.01 | 92 | 1014.4 |
| 20260904144600 | 68 | 120 | 0.0 | 6.0 | 0.00 | 0.36 | 0.01 | 92 | 1014.4 |
| 20260904143124 | 68 | 150 | 0.0 | 6.0 | 0.00 | 0.36 | 0.01 | 92 | 1014.3 |
| 20260904141605 | 67 | 236 | 1.0 | 2.0 | 0.00 | 0.36 | 0.01 | 93 | 1014.4 |
| 20260904140054 | 67 | 236 | 0.0 | 1.0 | 0.00 | 0.36 | 0.01 | 93 | 1014.1 |
| 20260904134559 | 67 | 236 | 0.0 | 3.0 | 0.00 | 0.36 | 0.01 | 93 | 1014.3 |
| 20260904133051 | 67 | 215 | 0.0 | 1.0 | 0.01 | 0.36 | 0.01 | 93 | 1014.2 |
| 20260904131550 | 67 | 215 | 0.0 | 3.0 | 0.01 | 0.36 | 0.01 | 93 | 1014.4 |
| 20260904130046 | 66 | 171 | 0.0 | 3.0 | 0.01 | 0.36 | 0.01 | 92 | 1014.1 |
| 20260904124543 | 66 | 63 | 0.0 | 2.0 | 0.01 | 0.36 | 0.01 | 92 | 1013.7 |
| 20260904123041 | 66 | 63 | 0.0 | 2.0 | 0.00 | 0.35 | 0.00 | 92 | 1013.7 |
| 20260904121541 | 66 | 63 | 1.0 | 2.0 | 0.00 | 0.35 | 0.00 | 92 | 1013.9 |
| 20260904120047 | 65 | 63 | 2.0 | 4.0 | 0.00 | 0.35 | 0.00 | 93 | 1013.7 |
| 20260904114538 | 65 | 63 | 1.0 | 4.0 | 0.00 | 0.35 | 0.00 | 93 | 1013.5 |
| 20260904113043 | 65 | 63 | 2.0 | 3.0 | 0.00 | 0.35 | 0.00 | 93 | 1013.4 |
| 20260904111538 | 65 | 63 | 1.0 | 2.0 | 0.00 | 0.35 | 0.00 | 93 | 1013.2 |
| 20260904110037 | 65 | 63 | 1.0 | 4.0 | 0.00 | 0.35 | 0.00 | 93 | 1012.8 |
| 20260904104549 | 65 | 42 | 2.0 | 4.0 | 0.00 | 0.35 | 0.00 | 93 | 1012.7 |
| 20260904103035 | 64 | 42 | 2.0 | 6.0 | 0.00 | 0.35 | 0.00 | 94 | 1012.5 |
| 20260904101534 | 65 | 166 | 0.0 | 0.0 | 0.00 | 0.35 | 0.00 | 93 | 1012.7 |
| 20260904100037 | 65 | 5 | 0.0 | 0.0 | 0.00 | 0.35 | 0.00 | 93 | 1012.4 |
| 20260904094534 | 65 | 5 | 0.0 | 0.0 | 0.00 | 0.35 | 0.00 | 93 | 1012.8 |
| 20260904093031 | 65 | 5 | 0.0 | 0.0 | 0.00 | 0.35 | 0.00 | 93 | 1012.9 |
| 20260904091530 | 65 | 5 | 0.0 | 0.0 | 0.00 | 0.35 | 0.00 | 93 | 1012.9 |
| 20260904090030 | 65 | 5 | 0.0 | 0.0 | 0.00 | 0.35 | 0.00 | 93 | 1012.9 |
| 20260904084535 | 65 | 5 | 0.0 | 0.0 | 0.00 | 0.35 | 0.00 | 93 | 1012.9 |
| 20260904083034 | 65 | 5 | 0.0 | 0.0 | 0.00 | 0.35 | 0.00 | 93 | 1012.8 |
| 20260904081527 | 65 | 5 | 0.0 | 0.0 | 0.00 | 0.35 | 0.00 | 93 | 1012.9 |
| 20260904080033 | 65 | 5 | 0.0 | 0.0 | 0.00 | 0.35 | 0.00 | 93 | 1013.2 |
| 20260904074525 | 66 | 5 | 0.0 | 0.0 | 0.00 | 0.35 | 0.00 | 93 | 1012.8 |
| 20260904073024 | 66 | 5 | 0.0 | 0.0 | 0.00 | 0.35 | 0.00 | 93 | 1012.6 |
| 20260904071522 | 65 | 5 | 0.0 | 0.0 | 0.00 | 0.35 | 0.00 | 93 | 1012.9 |
| 20260904070019 | 65 | 5 | 0.0 | 0.0 | 0.00 | 0.35 | 0.00 | 93 | 1013.3 |
| 20260904064525 | 65 | 5 | 0.0 | 0.0 | 0.00 | 0.35 | 0.00 | 93 | 1013.7 |
| 20260904063021 | 65 | 5 | 0.0 | 0.0 | 0.00 | 0.35 | 0.00 | 93 | 1013.7 |
| 20260904061516 | 65 | 5 | 0.0 | 0.0 | 0.00 | 0.35 | 0.00 | 93 | 1013.7 |
| 20260904060015 | 65 | 5 | 0.0 | 1.0 | 0.00 | 0.35 | 0.00 | 93 | 1013.6 |
| 20260904054515 | 65 | 5 | 0.0 | 0.0 | 0.00 | 0.35 | 0.00 | 93 | 1013.6 |
| 20260904053017 | 65 | 5 | 0.0 | 0.0 | 0.00 | 0.35 | 0.00 | 93 | 1013.7 |
| 20260904051513 | 65 | 5 | 0.0 | 2.0 | 0.00 | 0.35 | 0.00 | 93 | 1013.9 |
| 20260904050008 | 65 | 5 | 0.0 | 2.0 | 0.00 | 0.35 | 0.00 | 93 | 1013.8 |
| 20260904044506 | 66 | 5 | 0.0 | 0.0 | 0.00 | 0.35 | 0.00 | 93 | 1014.1 |
| 20260904043004 | 66 | 5 | 0.0 | 2.0 | 0.00 | 0.35 | 0.00 | 93 | 1014.0 |
| 20260904041505 | 66 | 5 | 0.0 | 1.0 | 0.00 | 0.35 | 0.00 | 93 | 1014.0 |
| 20260904040002 | 66 | 5 | 0.0 | 1.0 | 0.00 | 0.35 | 0.35 | 93 | 1013.9 |
| 20260904034600 | 66 | 5 | 0.0 | 0.0 | 0.00 | 0.35 | 0.35 | 93 | 1013.8 |
| 20260904034500 | 66 | 5 | 0.0 | 0.0 | 0.00 | 0.35 | 0.35 | 93 | 1013.7 |
| 20260904033102 | 66 | 5 | 0.0 | 0.0 | 0.00 | 0.35 | 0.35 | 93 | 1013.8 |
| 20260904031600 | 66 | 5 | 0.0 | 0.0 | 0.00 | 0.35 | 0.35 | 93 | 1013.6 |
| 20260904030059 | 66 | 5 | 0.0 | 0.0 | 0.00 | 0.35 | 0.35 | 93 | 1013.4 |
| 20260904024558 | 66 | 5 | 0.0 | 0.0 | 0.00 | 0.35 | 0.35 | 93 | 1013.4 |
| 20260904023057 | 66 | 5 | 0.0 | 0.0 | 0.00 | 0.35 | 0.35 | 93 | 1013.4 |
| 20260904021557 | 66 | 5 | 0.0 | 3.0 | 0.00 | 0.35 | 0.35 | 92 | 1013.4 |
| 20260904020056 | 67 | 10 | 2.0 | 4.0 | 0.00 | 0.35 | 0.35 | 92 | 1013.3 |
| 20260904014557 | 67 | 10 | 0.0 | 0.0 | 0.00 | 0.35 | 0.35 | 92 | 1013.2 |
| 20260904013106 | 67 | 10 | 0.0 | 1.0 | 0.00 | 0.35 | 0.35 | 93 | 1013.4 |
| 20260904011556 | 67 | 10 | 1.0 | 3.0 | 0.00 | 0.35 | 0.35 | 92 | 1013.2 |
| 20260904010053 | 67 | 5 | 3.0 | 4.0 | 0.00 | 0.35 | 0.35 | 92 | 1012.8 |
| 20260904004553 | 67 | 92 | 1.0 | 3.0 | 0.00 | 0.36 | 0.35 | 92 | 1012.5 |
| 20260904003051 | 67 | 65 | 1.0 | 4.0 | 0.00 | 0.36 | 0.35 | 92 | 1012.2 |
| 20260904001603 | 67 | 115 | 1.0 | 3.0 | 0.00 | 0.36 | 0.35 | 92 | 1012.1 |
| 20260904000051 | 67 | 115 | 0.0 | 3.0 | 0.00 | 0.36 | 0.35 | 92 | 1012.2 |
| 20260903234554 | 68 | 51 | 0.0 | 3.0 | 0.00 | 0.48 | 0.35 | 91 | 1012.1 |
| 20260903233052 | 68 | 51 | 1.0 | 4.0 | 0.00 | 0.48 | 0.35 | 91 | 1011.8 |
| 20260903231549 | 68 | 168 | 0.0 | 2.0 | 0.00 | 0.48 | 0.35 | 91 | 1011.5 |
| 20260903230049 | 68 | 168 | 2.0 | 4.0 | 0.00 | 0.48 | 0.35 | 91 | 1011.7 |
| 20260903224547 | 68 | 5 | 2.0 | 5.0 | 0.00 | 0.48 | 0.35 | 92 | 1012.2 |
| 20260903223052 | 67 | 12 | 4.0 | 9.0 | 0.00 | 0.48 | 0.35 | 92 | 1012.3 |
| 20260903221545 | 67 | 28 | 5.0 | 13.0 | 0.00 | 0.48 | 0.35 | 92 | 1011.9 |
| 20260903220059 | 68 | 26 | 11.0 | 13.0 | 0.00 | 0.48 | 0.35 | 92 | 1011.7 |
| 20260903214543 | 68 | 50 | 5.0 | 9.0 | 0.00 | 0.53 | 0.35 | 92 | 1010.6 |
| 20260903213047 | 68 | 144 | 4.0 | 8.0 | 0.01 | 0.53 | 0.35 | 92 | 1010.4 |
| 20260903211542 | 68 | 109 | 5.0 | 10.0 | 0.02 | 0.53 | 0.35 | 92 | 1010.9 |
| 20260903210049 | 68 | 106 | 3.0 | 7.0 | 0.03 | 0.53 | 0.35 | 92 | 1012.2 |
| 20260903204541 | 68 | 34 | 3.0 | 6.0 | 0.08 | 0.76 | 0.35 | 92 | 1013.3 |
| 20260903203040 | 68 | 360 | 4.0 | 7.0 | 0.11 | 0.75 | 0.34 | 92 | 1013.3 |
| 20260903201540 | 68 | 111 | 4.0 | 6.0 | 0.28 | 0.74 | 0.33 | 92 | 1012.6 |
| 20260903200039 | 68 | 355 | 0.0 | 1.0 | 0.30 | 0.73 | 0.32 | 91 | 1013.4 |
| 20260903194547 | 68 | 5 | 0.0 | 4.0 | 0.27 | 0.68 | 0.27 | 91 | 1013.5 |